Location: Mentone
(34.5413°N, 85.5351°W)
Time: 15:13:48
(UTC-06:00)

Uosat F - Visible Passes

Search period start: 24 January 2017 00:00
Search period end: 03 February 2017 00:00
Orbit: 750 x 761 km, 98.8° (Epoch: 23 January)

Date Brightness Start Highest point End Pass type
(mag) Time Alt. Az. Time Alt. Az. Time Alt. Az.
24 Jan 12.3 05:47:03 10° NNE 05:51:54 45° E 05:56:43 10° S visible
24 Jan 14.0 18:37:08 10° SW 18:40:24 17° W 18:43:39 10° NW visible
25 Jan 14.0 05:08:52 10° NE 05:12:14 18° E 05:15:35 10° SE visible
25 Jan 12.4 17:55:58 10° S 18:00:43 44° W 18:05:30 10° NNW visible
26 Jan 11.4 06:06:43 10° NNE 06:11:46 74° ESE 06:16:48 10° S visible
26 Jan 14.6 18:59:47 10° W 19:00:25 10° W 19:01:03 10° W visible
27 Jan 13.3 05:27:52 10° NE 05:32:12 28° E 05:36:30 10° SSE visible
27 Jan 13.3 18:16:24 10° SSW 18:20:38 28° W 18:24:55 10° NW visible
28 Jan 14.6 04:51:30 10° E 04:52:26 10° E 04:53:21 10° ESE visible
28 Jan 11.4 17:36:05 10° S 17:41:04 74° WSW 17:46:06 10° NNW visible
29 Jan 12.4 05:47:17 10° NNE 05:52:08 45° E 05:56:57 10° S visible
29 Jan 14.1 18:37:20 10° SW 18:40:37 18° W 18:43:55 10° NW visible
30 Jan 14.1 05:09:07 10° NE 05:12:28 18° E 05:15:47 10° SE visible
30 Jan 12.3 17:56:11 10° S 18:00:56 45° W 18:05:45 10° NNW visible
31 Jan 11.4 06:06:57 10° NNE 06:12:00 73° ESE 06:17:02 10° S visible
31 Jan 14.6 18:59:46 10° WSW 19:00:39 10° W 19:01:32 10° W visible
01 Feb 13.4 05:28:07 10° NE 05:32:26 28° E 05:36:44 10° SSE visible
01 Feb 13.3 18:16:36 10° SSW 18:20:52 28° W 18:25:10 10° NW visible
02 Feb 14.6 04:51:54 10° E 04:52:39 10° E 04:53:24 10° E visible
02 Feb 11.4 17:36:18 10° S 17:41:18 75° WSW 17:46:19 10° NNW visible
